M I D A S
Marine Information and Data Acquisition System
Tripno 2287 of the Zeeleeuw from 2012-04-11 06:49:18 to 2012-04-11 14:26:17
Back to CruiseResearch ActivitiesStationsMapUnderway DataData graphs

EquipmentUnitsComments
TimeDGPSUTC
LatitudeDGPSDM.mWGS84
LongitudeDGPSDM.mWGS84
SpeedMeteo Stationm/sRelative wind speed
DirectionMeteo StationdegRelative wind direction
TemperatureMeteo Stationdeg CelciusAir temperature
PressureMeteo StationPaAtmospheric pressure
HumidityMeteo Station%Relative humidity
Missing or incorrect values are displayed as -999
Metereological data collected by the RV Zeeleeuw from 2012-04-11 06:29:50 to 2012-04-11 14:31:55
                                                                                    Next 1000 lines
Time Latitude Longitude Speed Direction Temperature Pressure Humidity
2012-04-11 06:30:00 51°13.631 2°56.022 2.9 4 6.2 99680 50
2012-04-11 06:30:05 51°13.633 2°56.021 3 6 6.2 99680 50
2012-04-11 06:30:11 51°13.634 2°56.02 2.3 7 6.2 99680 50
2012-04-11 06:30:16 51°13.634 2°56.02 2.4 23 6.2 99680 48
2012-04-11 06:30:20 51°13.634 2°56.021 2.9 8 6.2 99680 48
2012-04-11 06:30:25 51°13.634 2°56.021 2.2 3 6.2 99680 48
2012-04-11 06:30:30 51°13.635 2°56.02 4.1 354 6.2 99680 48
2012-04-11 06:30:35 51°13.635 2°56.02 3.4 357 6.2 99680 48
2012-04-11 06:30:40 51°13.635 2°56.02 3.9 1 6.2 99680 48
2012-04-11 06:30:45 51°13.635 2°56.02 3.6 6 6.2 99680 50
2012-04-11 06:30:51 51°13.636 2°56.019 3.5 7 6.2 99680 50
2012-04-11 06:30:56 51°13.636 2°56.019 2.8 11 6.2 99680 49
2012-04-11 06:31:00 51°13.636 2°56.019 3 359 6.2 99680 49
2012-04-11 06:31:05 51°13.635 2°56.019 2.9 1 6.2 99680 50
2012-04-11 06:31:11 51°13.635 2°56.019 2.9 2 6.2 99680 50
2012-04-11 06:31:16 51°13.636 2°56.019 2.6 3 6.2 99680 48
2012-04-11 06:31:20 51°13.636 2°56.019 2.2 23 6.2 99680 48
2012-04-11 06:31:25 51°13.636 2°56.019 1.9 22 6.2 99680 50
2012-04-11 06:31:30 51°13.636 2°56.019 2.2 12 6.2 99680 50
2012-04-11 06:31:35 51°13.636 2°56.019 1.4 358 6.2 99680 48
2012-04-11 06:31:40 51°13.636 2°56.019 2.2 355 6.2 99680 48
2012-04-11 06:31:46 51°13.636 2°56.019 2.8 3 6.2 99680 47
2012-04-11 06:31:50 51°13.637 2°56.019 2.9 2 6.2 99680 47
2012-04-11 06:31:56 51°13.637 2°56.019 3.2 11 6.2 99680 49
2012-04-11 06:32:01 51°13.637 2°56.019 2.8 3 6.2 99680 49
2012-04-11 06:32:05 51°13.637 2°56.019 3.3 13 6.2 99680 48
2012-04-11 06:32:10 51°13.636 2°56.02 3.2 12 6.2 99680 48
2012-04-11 06:32:15 51°13.636 2°56.02 3.5 10 6.2 99680 49
2012-04-11 06:32:20 51°13.636 2°56.02 2.7 9 6.2 99680 49
2012-04-11 06:32:25 51°13.637 2°56.019 2.6 6 6.2 99680 48
2012-04-11 06:32:30 51°13.637 2°56.019 3.5 5 6.2 99680 48
2012-04-11 06:32:35 51°13.637 2°56.019 3.1 3 6.2 99680 48
2012-04-11 06:32:41 51°13.637 2°56.018 3 12 6.2 99680 48
2012-04-11 06:32:46 51°13.637 2°56.019 2.5 11 6.3 99690 48
2012-04-11 06:32:51 51°13.637 2°56.019 2.3 14 6.3 99690 48
2012-04-11 06:32:55 51°13.637 2°56.019 2.6 13 6.2 99680 50
2012-04-11 06:33:00 51°13.637 2°56.019 2.6 15 6.2 99680 50
2012-04-11 06:33:05 51°13.637 2°56.019 2.5 19 6.2 99680 48
2012-04-11 06:33:10 51°13.637 2°56.019 2.3 13 6.2 99680 48
2012-04-11 06:33:16 51°13.637 2°56.019 1.9 15 6.3 99680 48
2012-04-11 06:33:20 51°13.637 2°56.019 2.7 19 6.3 99680 48
2012-04-11 06:33:26 51°13.636 2°56.02 3 15 6.3 99680 48
2012-04-11 06:33:31 51°13.636 2°56.019 3 13 6.3 99680 48
2012-04-11 06:33:36 51°13.636 2°56.02 3 12 6.2 99680 48
2012-04-11 06:33:40 51°13.636 2°56.02 3.7 16 6.2 99680 48
2012-04-11 06:33:45 51°13.636 2°56.019 4.9 26 6.2 99680 48
2012-04-11 06:33:50 51°13.636 2°56.019 4.2 14 6.2 99680 48
2012-04-11 06:33:55 51°13.636 2°56.02 3.1 13 6.2 99680 48
2012-04-11 06:34:00 51°13.636 2°56.02 2.9 18 6.2 99680 48
2012-04-11 06:34:05 51°13.636 2°56.019 2.5 16 6.2 99690 49
2012-04-11 06:34:11 51°13.636 2°56.019 1.9 11 6.2 99690 49
2012-04-11 06:34:16 51°13.636 2°56.019 2 3 6.2 99680 48
2012-04-11 06:34:21 51°13.636 2°56.019 3.7 2 6.2 99680 48
2012-04-11 06:34:25 51°13.636 2°56.019 2.6 14 6.2 99680 48
2012-04-11 06:34:30 51°13.636 2°56.019 2.8 10 6.2 99680 48
2012-04-11 06:34:35 51°13.635 2°56.019 3.6 4 6.2 99690 50
2012-04-11 06:34:41 51°13.636 2°56.019 2.1 12 6.2 99690 50
2012-04-11 06:34:46 51°13.636 2°56.019 3.3 14 6.2 99680 50
2012-04-11 06:34:50 51°13.636 2°56.019 3.4 15 6.2 99680 50
2012-04-11 06:34:56 51°13.636 2°56.019 3.9 9 6.2 99680 49
2012-04-11 06:35:01 51°13.636 2°56.018 4.3 14 6.2 99680 49
2012-04-11 06:35:06 51°13.636 2°56.019 4.2 15 6.2 99680 49
2012-04-11 06:35:10 51°13.636 2°56.019 5.3 14 6.2 99680 49
2012-04-11 06:35:16 51°13.636 2°56.019 4.6 18 6.2 99690 48
2012-04-11 06:35:20 51°13.636 2°56.019 4.9 23 6.2 99690 48
2012-04-11 06:35:25 51°13.636 2°56.018 5.1 18 6.2 99690 49
2012-04-11 06:35:30 51°13.636 2°56.018 5 11 6.2 99690 49
2012-04-11 06:35:36 51°13.636 2°56.018 5.2 10 6.2 99690 49
2012-04-11 06:35:41 51°13.636 2°56.019 3.4 7 6.2 99690 49
2012-04-11 06:35:46 51°13.636 2°56.018 4.6 13 6.2 99680 48
2012-04-11 06:35:51 51°13.636 2°56.018 3.7 17 6.2 99680 48
2012-04-11 06:35:56 51°13.637 2°56.018 3.9 13 6.2 99680 49
2012-04-11 06:36:01 51°13.637 2°56.018 3.9 15 6.2 99680 49
2012-04-11 06:36:06 51°13.637 2°56.018 3.4 13 6.2 99680 48
2012-04-11 06:36:11 51°13.637 2°56.018 3.5 13 6.2 99680 48
2012-04-11 06:36:15 51°13.637 2°56.018 2.9 20 6.2 99680 49
2012-04-11 06:36:21 51°13.636 2°56.018 3.2 22 6.2 99680 49
2012-04-11 06:36:26 51°13.636 2°56.018 3.3 16 6.3 99690 48
2012-04-11 06:36:31 51°13.636 2°56.018 2.6 14 6.3 99690 48
2012-04-11 06:36:35 51°13.636 2°56.018 1.9 10 6.2 99690 48
2012-04-11 06:36:41 51°13.636 2°56.019 3 6 6.2 99690 48
2012-04-11 06:36:46 51°13.636 2°56.018 4 7 6.2 99690 47
2012-04-11 06:36:51 51°13.636 2°56.019 2.8 9 6.2 99690 47
2012-04-11 06:36:55 51°13.636 2°56.019 2.7 2 6.2 99690 47
2012-04-11 06:37:00 51°13.636 2°56.019 3.3 1 6.2 99690 47
2012-04-11 06:37:06 51°13.636 2°56.019 2.5 10 6.3 99690 46
2012-04-11 06:37:10 51°13.636 2°56.019 2.7 8 6.3 99690 46
2012-04-11 06:37:16 51°13.636 2°56.019 3.3 17 6.2 99690 49
2012-04-11 06:37:20 51°13.636 2°56.018 3.1 23 6.2 99690 49
2012-04-11 06:37:26 51°13.636 2°56.019 2.9 6 6.3 99690 49
2012-04-11 06:37:30 51°13.636 2°56.019 5 14 6.3 99690 49
2012-04-11 06:37:35 51°13.636 2°56.019 4.4 16 6.3 99690 48
2012-04-11 06:37:40 51°13.636 2°56.019 4.5 25 6.3 99690 48
2012-04-11 06:37:44 51°13.636 2°56.019 4 14 6.3 99690 49
2012-04-11 06:37:51 51°13.636 2°56.019 5.4 14 6.3 99690 49
2012-04-11 06:37:56 51°13.636 2°56.019 4.9 4 6.3 99690 48
2012-04-11 06:38:01 51°13.636 2°56.019 5.2 8 6.3 99690 48
2012-04-11 06:38:05 51°13.636 2°56.02 4 13 6.3 99690 49
2012-04-11 06:38:10 51°13.636 2°56.019 3 5 6.3 99690 49
2012-04-11 06:38:16 51°13.636 2°56.019 3.9 19 6.3 99700 47
2012-04-11 06:38:20 51°13.636 2°56.019 3.7 31 6.3 99700 47
2012-04-11 06:38:25 51°13.635 2°56.02 3.3 23 6.3 99690 47
2012-04-11 06:38:30 51°13.635 2°56.02 2.6 26 6.3 99690 47
2012-04-11 06:38:35 51°13.636 2°56.019 3.2 28 6.3 99690 47
2012-04-11 06:38:40 51°13.635 2°56.02 3 20 6.3 99690 47
2012-04-11 06:38:45 51°13.635 2°56.02 4.1 18 6.3 99690 49
2012-04-11 06:38:50 51°13.635 2°56.02 4.6 26 6.3 99690 49
2012-04-11 06:38:55 51°13.635 2°56.02 4.2 20 6.3 99700 48
2012-04-11 06:39:00 51°13.635 2°56.02 3.7 26 6.3 99700 48
2012-04-11 06:39:06 51°13.635 2°56.02 3.5 18 6.3 99690 47
2012-04-11 06:39:10 51°13.635 2°56.02 2.8 17 6.3 99690 47
2012-04-11 06:39:16 51°13.636 2°56.019 2.3 8 6.3 99690 49
2012-04-11 06:39:21 51°13.636 2°56.019 2.3 24 6.3 99690 49
2012-04-11 06:39:26 51°13.635 2°56.02 2.7 1 6.3 99690 47
2012-04-11 06:39:30 51°13.635 2°56.02 2.7 357 6.3 99690 47
2012-04-11 06:39:36 51°13.635 2°56.019 2.5 15 6.3 99690 49
2012-04-11 06:39:41 51°13.635 2°56.02 1.8 18 6.3 99690 49
2012-04-11 06:39:45 51°13.635 2°56.02 2 9 6.3 99690 46
2012-04-11 06:39:50 51°13.635 2°56.02 2 7 6.3 99690 46
2012-04-11 06:39:55 51°13.635 2°56.02 1.9 8 6.3 99690 47
2012-04-11 06:40:01 51°13.636 2°56.019 1.8 15 6.3 99690 47
2012-04-11 06:40:06 51°13.636 2°56.019 2.1 14 6.3 99700 48
2012-04-11 06:40:11 51°13.635 2°56.019 1.6 17 6.3 99700 48
2012-04-11 06:40:15 51°13.635 2°56.02 2 15 6.3 99700 47
2012-04-11 06:40:20 51°13.635 2°56.02 2.7 18 6.3 99700 47
2012-04-11 06:40:25 51°13.635 2°56.02 3.8 7 6.3 99700 47
2012-04-11 06:40:30 51°13.636 2°56.019 3.8 4 6.3 99700 47
2012-04-11 06:40:35 51°13.636 2°56.018 3.9 17 6.4 99700 48
2012-04-11 06:40:41 51°13.635 2°56.019 3.4 22 6.4 99700 48
2012-04-11 06:40:46 51°13.635 2°56.019 2.8 21 6.4 99700 49
2012-04-11 06:40:50 51°13.635 2°56.019 2.8 12 6.4 99700 49
2012-04-11 06:40:56 51°13.635 2°56.019 2.7 3 6.4 99700 47
2012-04-11 06:41:01 51°13.635 2°56.019 2.3 3 6.4 99700 47
2012-04-11 06:41:06 51°13.635 2°56.019 2 16 6.4 99690 47
2012-04-11 06:41:11 51°13.635 2°56.019 0.9 18 6.4 99690 47
2012-04-11 06:41:16 51°13.635 2°56.019 2.6 15 6.4 99690 49
2012-04-11 06:41:21 51°13.635 2°56.019 2.8 8 6.4 99690 49
2012-04-11 06:41:26 51°13.635 2°56.02 1.9 20 6.4 99700 49
2012-04-11 06:41:31 51°13.636 2°56.019 2.6 16 6.4 99700 49
2012-04-11 06:41:36 51°13.636 2°56.019 3.8 7 6.4 99700 47
2012-04-11 06:41:40 51°13.636 2°56.019 3.2 6 6.4 99700 47
2012-04-11 06:41:46 51°13.636 2°56.018 2.8 16 6.4 99700 48
2012-04-11 06:41:51 51°13.636 2°56.018 2.8 11 6.4 99700 48
2012-04-11 06:41:55 51°13.636 2°56.018 2.5 15 6.4 99700 48
2012-04-11 06:42:00 51°13.636 2°56.018 2.2 9 6.4 99700 48
2012-04-11 06:42:05 51°13.635 2°56.019 2.8 7 6.4 99700 47
2012-04-11 06:42:10 51°13.636 2°56.018 3.2 12 6.4 99700 47
2012-04-11 06:42:15 51°13.636 2°56.018 2.8 13 6.4 99700 49
2012-04-11 06:42:20 51°13.636 2°56.018 2.3 18 6.4 99700 49
2012-04-11 06:42:25 51°13.636 2°56.018 2.2 14 6.4 99700 47
2012-04-11 06:42:30 51°13.636 2°56.018 2.2 20 6.4 99700 47
2012-04-11 06:42:35 51°13.636 2°56.018 2.1 23 6.4 99700 49
2012-04-11 06:42:40 51°13.636 2°56.017 2.3 15 6.4 99700 49
2012-04-11 06:42:45 51°13.636 2°56.018 1.9 9 6.4 99700 47
2012-04-11 06:42:51 51°13.636 2°56.018 2 15 6.4 99700 47
2012-04-11 06:42:56 51°13.635 2°56.018 1 19 6.4 99700 47
2012-04-11 06:43:01 51°13.635 2°56.018 2 16 6.4 99700 47
2012-04-11 06:43:05 51°13.636 2°56.018 2.6 11 6.4 99700 48
2012-04-11 06:43:10 51°13.636 2°56.018 2.5 6 6.4 99700 48
2012-04-11 06:43:15 51°13.636 2°56.018 3.2 11 6.4 99700 48
2012-04-11 06:43:21 51°13.636 2°56.018 2.7 21 6.4 99700 48
2012-04-11 06:43:25 51°13.636 2°56.018 2.9 20 6.4 99700 47
2012-04-11 06:43:30 51°13.636 2°56.018 3 10 6.4 99700 47
2012-04-11 06:43:35 51°13.636 2°56.019 2.2 15 6.4 99690 49
2012-04-11 06:43:40 51°13.636 2°56.018 1.2 14 6.4 99690 49
2012-04-11 06:43:45 51°13.636 2°56.018 2.7 14 6.4 99700 47
2012-04-11 06:43:50 51°13.636 2°56.019 2.4 2 6.4 99700 47
2012-04-11 06:43:55 51°13.636 2°56.019 2.7 6 6.4 99700 47
2012-04-11 06:44:01 51°13.636 2°56.019 2.6 359 6.4 99700 47
2012-04-11 06:44:04 51°13.636 2°56.018 2.4 16 6.4 99700 47
2012-04-11 06:44:10 51°13.636 2°56.019 1.7 22 6.4 99700 47
2012-04-11 06:44:16 51°13.636 2°56.019 2.2 18 6.4 99700 47
2012-04-11 06:44:21 51°13.636 2°56.019 1.7 2 6.4 99700 47
2012-04-11 06:44:25 51°13.636 2°56.019 1.7 7 6.4 99690 49
2012-04-11 06:44:30 51°13.636 2°56.019 2.5 13 6.4 99690 49
2012-04-11 06:44:36 51°13.636 2°56.019 2.8 25 6.4 99700 47
2012-04-11 06:44:41 51°13.636 2°56.019 2.1 12 6.4 99700 47
2012-04-11 06:44:46 51°13.636 2°56.019 2.4 15 6.4 99700 47
2012-04-11 06:44:50 51°13.636 2°56.019 3 12 6.4 99700 47
2012-04-11 06:44:56 51°13.636 2°56.019 2.6 12 6.4 99700 47
2012-04-11 06:45:01 51°13.636 2°56.019 3.8 6 6.4 99700 47
2012-04-11 06:45:06 51°13.636 2°56.019 3.7 9 6.4 99700 48
2012-04-11 06:45:10 51°13.637 2°56.019 4.8 20 6.4 99700 48
2012-04-11 06:45:16 51°13.637 2°56.019 5.3 15 6.4 99700 47
2012-04-11 06:45:21 51°13.637 2°56.019 4.1 8 6.4 99700 47
2012-04-11 06:45:26 51°13.636 2°56.019 3 6 6.4 99700 47
2012-04-11 06:45:30 51°13.636 2°56.019 3.4 4 6.4 99700 47
2012-04-11 06:45:35 51°13.636 2°56.019 2.5 2 6.4 99700 47
2012-04-11 06:45:41 51°13.636 2°56.019 4.7 7 6.4 99700 47
2012-04-11 06:45:46 51°13.636 2°56.019 4.1 22 6.4 99700 47
2012-04-11 06:45:50 51°13.636 2°56.019 5 22 6.4 99700 47
2012-04-11 06:45:56 51°13.636 2°56.019 4 23 6.4 99700 47
2012-04-11 06:46:01 51°13.636 2°56.019 2.7 23 6.4 99700 47
2012-04-11 06:46:06 51°13.636 2°56.019 2.7 25 6.4 99700 47
2012-04-11 06:46:10 51°13.636 2°56.019 3.6 356 6.4 99700 47
2012-04-11 06:46:16 51°13.636 2°56.019 4.4 6 6.4 99700 47
2012-04-11 06:46:20 51°13.636 2°56.019 3.7 15 6.4 99700 47
2012-04-11 06:46:25 51°13.636 2°56.019 3.6 14 6.4 99700 48
2012-04-11 06:46:30 51°13.636 2°56.019 4.7 11 6.4 99700 48
2012-04-11 06:46:35 51°13.636 2°56.019 3.3 9 6.4 99700 47
2012-04-11 06:46:40 51°13.636 2°56.019 3.6 5 6.4 99700 47
2012-04-11 06:46:46 51°13.636 2°56.019 3.1 5 6.4 99690 47
2012-04-11 06:46:51 51°13.637 2°56.019 3.5 17 6.4 99690 47
2012-04-11 06:46:56 51°13.637 2°56.019 4.1 9 6.4 99700 47
2012-04-11 06:47:01 51°13.637 2°56.019 3.1 23 6.4 99700 47
2012-04-11 06:47:05 51°13.637 2°56.019 2.8 26 6.4 99700 48
2012-04-11 06:47:11 51°13.637 2°56.019 2.8 24 6.4 99700 48
2012-04-11 06:47:16 51°13.637 2°56.018 2.1 22 6.4 99700 47
2012-04-11 06:47:21 51°13.638 2°56.018 2.3 16 6.4 99700 47
2012-04-11 06:47:26 51°13.637 2°56.019 2.7 16 6.4 99700 48
2012-04-11 06:47:31 51°13.637 2°56.019 3.1 3 6.4 99700 48
2012-04-11 06:47:35 51°13.637 2°56.019 2.9 6 6.4 99700 49
2012-04-11 06:47:41 51°13.637 2°56.019 1.9 357 6.4 99700 49
2012-04-11 06:47:46 51°13.637 2°56.019 3.2 4 6.4 99700 47
2012-04-11 06:47:51 51°13.638 2°56.018 3 27 6.4 99700 47
2012-04-11 06:47:55 51°13.637 2°56.019 2.7 28 6.4 99700 47
2012-04-11 06:48:01 51°13.638 2°56.019 1.9 18 6.4 99700 47
2012-04-11 06:48:06 51°13.638 2°56.019 1.8 17 6.4 99700 47
2012-04-11 06:48:11 51°13.638 2°56.019 2.2 21 6.4 99700 47
2012-04-11 06:48:16 51°13.638 2°56.019 2.1 16 6.4 99700 49
2012-04-11 06:48:21 51°13.638 2°56.019 0.3 6 6.4 99700 49
2012-04-11 06:48:26 51°13.637 2°56.019 0.2 6 6.4 99700 47
2012-04-11 06:48:31 51°13.637 2°56.019 1.3 360 6.4 99700 47
2012-04-11 06:48:36 51°13.637 2°56.019 1.7 9 6.4 99700 47
2012-04-11 06:48:41 51°13.637 2°56.019 2.5 11 6.4 99700 47
2012-04-11 06:48:46 51°13.637 2°56.019 1.9 9 6.4 99700 48
2012-04-11 06:48:51 51°13.637 2°56.019 2.5 358 6.4 99700 48
2012-04-11 06:48:55 51°13.637 2°56.019 2 4 6.4 99700 47
2012-04-11 06:49:01 51°13.637 2°56.019 1.6 10 6.4 99700 47
2012-04-11 06:49:06 51°13.637 2°56.019 2.3 5 6.4 99700 47
2012-04-11 06:49:10 51°13.637 2°56.019 2.1 13 6.4 99700 47
2012-04-11 06:49:16 51°13.637 2°56.019 2.7 7 6.5 99700 48
2012-04-11 06:49:21 51°13.637 2°56.019 0.7 20 6.5 99700 48
2012-04-11 06:49:26 51°13.637 2°56.019 2.5 15 6.5 99700 48
2012-04-11 06:49:31 51°13.637 2°56.019 2.5 20 6.5 99700 48
2012-04-11 06:49:36 51°13.637 2°56.019 2.5 10 6.5 99700 49
2012-04-11 06:49:40 51°13.637 2°56.019 2.2 15 6.5 99700 49
2012-04-11 06:49:46 51°13.636 2°56.02 2.5 8 6.5 99700 48
2012-04-11 06:49:50 51°13.636 2°56.02 2.2 11 6.5 99700 48
2012-04-11 06:49:55 51°13.636 2°56.02 2.3 5 6.5 99700 47
2012-04-11 06:50:00 51°13.637 2°56.019 1.7 7 6.5 99700 47
2012-04-11 06:50:05 51°13.636 2°56.02 1.8 11 6.5 99700 49
2012-04-11 06:50:10 51°13.636 2°56.02 2.2 2 6.5 99700 49
2012-04-11 06:50:15 51°13.636 2°56.02 1.6 357 6.5 99700 49
2012-04-11 06:50:20 51°13.637 2°56.02 1.1 15 6.5 99700 49
2012-04-11 06:50:26 51°13.636 2°56.02 3 7 6.5 99700 46
2012-04-11 06:50:31 51°13.636 2°56.02 2.8 9 6.5 99700 46
2012-04-11 06:50:35 51°13.636 2°56.02 2.9 17 6.5 99700 48
2012-04-11 06:50:41 51°13.636 2°56.02 2.6 17 6.5 99700 48
2012-04-11 06:50:46 51°13.636 2°56.02 2.8 10 6.5 99700 47
2012-04-11 06:50:51 51°13.636 2°56.02 2.8 9 6.5 99700 47
2012-04-11 06:50:55 51°13.635 2°56.02 2.7 17 6.5 99690 48
2012-04-11 06:51:01 51°13.636 2°56.02 2.8 15 6.5 99690 48
2012-04-11 06:51:06 51°13.636 2°56.02 2.3 6 6.5 99700 49
2012-04-11 06:51:11 51°13.636 2°56.02 2.6 16 6.5 99700 49
2012-04-11 06:51:15 51°13.635 2°56.02 3 18 6.5 99700 47
2012-04-11 06:51:21 51°13.635 2°56.02 3.4 20 6.5 99700 47
2012-04-11 06:51:26 51°13.635 2°56.02 3.2 18 6.5 99700 49
2012-04-11 06:51:31 51°13.635 2°56.02 3.1 16 6.5 99700 49
2012-04-11 06:51:35 51°13.635 2°56.019 2.8 17 6.5 99700 47
2012-04-11 06:51:41 51°13.634 2°56.02 2.3 35 6.5 99700 47
2012-04-11 06:51:46 51°13.634 2°56.02 2.4 31 6.5 99700 49
2012-04-11 06:51:50 51°13.634 2°56.019 2 23 6.5 99700 49
2012-04-11 06:51:55 51°13.634 2°56.019 2.6 21 6.5 99690 49
2012-04-11 06:52:00 51°13.634 2°56.019 3.3 26 6.5 99690 49
2012-04-11 06:52:05 51°13.635 2°56.018 3.2 25 6.5 99690 49
2012-04-11 06:52:10 51°13.635 2°56.016 2.2 24 6.5 99690 49
2012-04-11 06:52:14 51°13.635 2°56.014 2.6 18 6.5 99700 48
2012-04-11 06:52:20 51°13.636 2°56.011 1.9 27 6.5 99700 48
2012-04-11 06:52:25 51°13.636 2°56.008 1.4 14 6.5 99690 48
2012-04-11 06:52:30 51°13.638 2°56.003 2.3 16 6.5 99690 48
2012-04-11 06:52:34 51°13.638 2°56 1.8 13 6.5 99700 49
2012-04-11 06:52:40 51°13.64 2°55.993 0.1 35 6.5 99700 49
2012-04-11 06:52:45 51°13.641 2°55.987 0.1 42 6.5 99700 47
2012-04-11 06:52:50 51°13.643 2°55.982 0.1 18 6.5 99700 47
2012-04-11 06:52:56 51°13.644 2°55.974 2.5 33 6.5 99700 48
2012-04-11 06:53:01 51°13.646 2°55.967 2.5 30 6.5 99700 48
2012-04-11 06:53:06 51°13.648 2°55.96 2.5 39 6.6 99690 47
2012-04-11 06:53:10 51°13.65 2°55.954 3.4 41 6.6 99690 47
2012-04-11 06:53:16 51°13.652 2°55.945 3.6 41 6.6 99690 49
2012-04-11 06:53:20 51°13.653 2°55.939 2.8 27 6.6 99690 49
2012-04-11 06:53:26 51°13.656 2°55.93 3.6 17 6.6 99700 47
2012-04-11 06:53:31 51°13.657 2°55.922 2.9 28 6.6 99700 47
2012-04-11 06:53:36 51°13.659 2°55.915 2.1 24 6.6 99690 48
2012-04-11 06:53:41 51°13.661 2°55.907 1.9 27 6.6 99690 48
2012-04-11 06:53:46 51°13.663 2°55.899 1.4 29 6.6 99690 48
2012-04-11 06:53:50 51°13.665 2°55.893 1.3 30 6.6 99690 48
2012-04-11 06:53:56 51°13.668 2°55.884 1.3 40 6.6 99690 49
2012-04-11 06:54:01 51°13.671 2°55.876 1.6 36 6.6 99690 49
2012-04-11 06:54:06 51°13.674 2°55.868 1.5 37 6.6 99690 47
2012-04-11 06:54:10 51°13.676 2°55.861 2 31 6.6 99690 47
2012-04-11 06:54:15 51°13.679 2°55.853 2.6 31 6.6 99690 47
2012-04-11 06:54:20 51°13.683 2°55.845 2.6 33 6.6 99690 47
2012-04-11 06:54:25 51°13.686 2°55.837 3.3 31 6.6 99690 47
2012-04-11 06:54:30 51°13.689 2°55.829 4 29 6.6 99690 47
2012-04-11 06:54:34 51°13.692 2°55.822 3.5 29 6.6 99690 48
2012-04-11 06:54:40 51°13.697 2°55.813 3.7 12 6.6 99690 48
2012-04-11 06:54:45 51°13.701 2°55.805 4.2 17 6.6 99690 47
2012-04-11 06:54:50 51°13.706 2°55.796 3.3 17 6.6 99690 47
2012-04-11 06:54:55 51°13.71 2°55.789 2.7 23 6.6 99690 47
2012-04-11 06:55:00 51°13.714 2°55.781 2.7 25 6.6 99690 47
2012-04-11 06:55:05 51°13.719 2°55.774 2.5 36 6.6 99700 47
2012-04-11 06:55:10 51°13.724 2°55.765 1.9 38 6.6 99700 47
2012-04-11 06:55:15 51°13.728 2°55.758 2.4 35 6.6 99690 49
2012-04-11 06:55:20 51°13.733 2°55.75 3.6 34 6.6 99690 49
2012-04-11 06:55:25 51°13.737 2°55.743 3.9 28 6.6 99690 48
2012-04-11 06:55:30 51°13.743 2°55.735 4 22 6.6 99690 48
2012-04-11 06:55:35 51°13.748 2°55.727 2.5 21 6.7 99690 47
2012-04-11 06:55:40 51°13.753 2°55.72 2.9 22 6.7 99690 47
2012-04-11 06:55:45 51°13.758 2°55.713 3 20 6.7 99690 46
2012-04-11 06:55:50 51°13.763 2°55.706 2.4 20 6.7 99690 46
2012-04-11 06:55:55 51°13.768 2°55.699 1.7 31 6.7 99690 48
2012-04-11 06:56:00 51°13.774 2°55.692 1.5 24 6.7 99690 48
2012-04-11 06:56:05 51°13.779 2°55.686 1.6 18 6.6 99690 47
2012-04-11 06:56:10 51°13.784 2°55.68 1.2 19 6.6 99690 47
2012-04-11 06:56:15 51°13.789 2°55.673 1.1 8 6.6 99690 47
2012-04-11 06:56:20 51°13.795 2°55.668 0.7 13 6.6 99690 47
2012-04-11 06:56:25 51°13.801 2°55.662 0.7 14 6.7 99690 46
2012-04-11 06:56:30 51°13.806 2°55.656 0.9 4 6.7 99690 46
2012-04-11 06:56:35 51°13.812 2°55.652 0.2 14 6.7 99690 48
2012-04-11 06:56:40 51°13.818 2°55.647 1.6 40 6.7 99690 48
2012-04-11 06:56:45 51°13.824 2°55.643 1.1 34 6.7 99690 48
2012-04-11 06:56:50 51°13.83 2°55.64 1.4 36 6.7 99690 48
2012-04-11 06:56:54 51°13.834 2°55.638 1.1 34 6.7 99690 47
2012-04-11 06:57:00 51°13.842 2°55.634 1 30 6.7 99690 47
2012-04-11 06:57:05 51°13.848 2°55.632 1 33 6.7 99690 48
2012-04-11 06:57:10 51°13.854 2°55.63 0.8 28 6.7 99690 48
2012-04-11 06:57:15 51°13.861 2°55.627 0.5 31 6.7 99700 48
2012-04-11 06:57:20 51°13.868 2°55.626 0.2 21 6.7 99700 48
2012-04-11 06:57:25 51°13.874 2°55.625 0.1 18 6.7 99690 48
2012-04-11 06:57:30 51°13.881 2°55.625 0.1 19 6.7 99690 48
2012-04-11 06:57:35 51°13.887 2°55.625 0.1 17 6.8 99700 47
2012-04-11 06:57:40 51°13.893 2°55.625 -999 30 6.8 99700 47
2012-04-11 06:57:45 51°13.9 2°55.626 -999 25 6.8 99690 47
2012-04-11 06:57:50 51°13.906 2°55.628 -999 21 6.8 99690 47
2012-04-11 06:57:55 51°13.912 2°55.63 -999 20 6.8 99690 48
2012-04-11 06:58:00 51°13.918 2°55.632 0.1 324 6.8 99690 48
2012-04-11 06:58:05 51°13.924 2°55.634 0.1 316 6.8 99690 47
2012-04-11 06:58:10 51°13.929 2°55.637 0.5 240 6.8 99690 47
2012-04-11 06:58:15 51°13.935 2°55.64 0.6 27 6.8 99700 48
2012-04-11 06:58:21 51°13.941 2°55.643 0.3 240 6.8 99700 48
2012-04-11 06:58:25 51°13.944 2°55.646 0.3 18 6.8 99700 47
2012-04-11 06:58:31 51°13.95 2°55.65 0.2 237 6.8 99700 47
2012-04-11 06:58:36 51°13.953 2°55.653 0.7 279 6.9 99700 48
2012-04-11 06:58:40 51°13.956 2°55.656 0.4 238 6.9 99700 48
2012-04-11 06:58:45 51°13.96 2°55.66 0.2 19 6.9 99700 49
2012-04-11 06:58:50 51°13.962 2°55.663 1.6 234 6.9 99700 49
2012-04-11 06:58:54 51°13.965 2°55.666 1.6 21 6.9 99700 49
2012-04-11 06:59:00 51°13.968 2°55.669 1.5 234 6.9 99700 49
2012-04-11 06:59:06 51°13.971 2°55.673 1.7 22 7 99700 49
2012-04-11 06:59:10 51°13.973 2°55.675 1.2 32 7 99700 49
2012-04-11 06:59:14 51°13.975 2°55.676 1.7 27 7 99700 48
2012-04-11 06:59:21 51°13.977 2°55.677 1.9 33 7 99700 48
2012-04-11 06:59:26 51°13.977 2°55.677 1.5 22 7 99700 49
2012-04-11 06:59:31 51°13.977 2°55.677 1.8 237 7 99700 49
2012-04-11 06:59:35 51°13.977 2°55.675 1.6 21 7.1 99700 48
2012-04-11 06:59:40 51°13.977 2°55.672 1.9 239 7.1 99700 48
2012-04-11 06:59:45 51°13.978 2°55.668 1.6 22 7.1 99700 48
2012-04-11 06:59:50 51°13.978 2°55.663 2.3 250 7.1 99700 48
2012-04-11 06:59:55 51°13.978 2°55.659 2.2 27 7.1 99700 48
2012-04-11 07:00:00 51°13.981 2°55.652 2 243 7.1 99700 48
2012-04-11 07:00:06 51°13.983 2°55.643 1.9 286 7.1 99700 48
2012-04-11 07:00:10 51°13.985 2°55.637 2.1 247 7.1 99700 48
2012-04-11 07:00:15 51°13.989 2°55.627 2.2 28 7.1 99700 49
2012-04-11 07:00:20 51°13.993 2°55.617 3.5 32 7.1 99700 49
2012-04-11 07:00:26 51°13.998 2°55.604 3.4 25 7.2 99700 49
2012-04-11 07:00:31 51°14.003 2°55.593 5 31 7.2 99700 49
2012-04-11 07:00:35 51°14.008 2°55.583 5.9 286 7.2 99690 48
2012-04-11 07:00:40 51°14.014 2°55.571 4.4 255 7.2 99690 48
2012-04-11 07:00:45 51°14.02 2°55.559 3.5 20 7.2 99700 47
2012-04-11 07:00:51 51°14.029 2°55.544 2.8 249 7.2 99700 47
2012-04-11 07:00:55 51°14.036 2°55.534 3.6 250 7.2 99690 47
2012-04-11 07:01:00 51°14.044 2°55.522 3.1 241 7.2 99690 47
2012-04-11 07:01:05 51°14.052 2°55.509 2.6 19 7.3 99690 46
2012-04-11 07:01:10 51°14.061 2°55.497 4.1 237 7.3 99690 46
2012-04-11 07:01:15 51°14.071 2°55.485 3.3 24 7.3 99700 47
2012-04-11 07:01:20 51°14.081 2°55.473 3.9 244 7.3 99700 47
2012-04-11 07:01:25 51°14.09 2°55.462 3.6 23 7.3 99700 48
2012-04-11 07:01:30 51°14.1 2°55.452 3.2 250 7.3 99700 48
2012-04-11 07:01:35 51°14.111 2°55.441 2.6 19 7.3 99700 47
2012-04-11 07:01:40 51°14.122 2°55.429 1.5 251 7.3 99700 47
2012-04-11 07:01:45 51°14.132 2°55.419 3.3 285 7.3 99700 48
2012-04-11 07:01:50 51°14.142 2°55.408 2.1 325 7.3 99700 48
2012-04-11 07:01:55 51°14.154 2°55.397 4.1 28 7.3 99700 46
2012-04-11 07:01:59 51°14.162 2°55.389 4.6 237 7.3 99700 46
2012-04-11 07:02:04 51°14.173 2°55.378 3.3 279 7.3 99700 46
2012-04-11 07:02:09 51°14.184 2°55.368 4.3 316 7.3 99700 46
2012-04-11 07:02:14 51°14.195 2°55.357 3.6 321 7.3 99700 47
2012-04-11 07:02:19 51°14.206 2°55.347 3.3 36 7.3 99700 47
2012-04-11 07:02:23 51°14.215 2°55.339 3.6 285 7.3 99700 47
2012-04-11 07:02:29 51°14.229 2°55.327 2.7 236 7.3 99700 47
2012-04-11 07:02:34 51°14.24 2°55.316 2.9 279 7.3 99700 47
2012-04-11 07:02:39 51°14.251 2°55.306 4.6 319 7.3 99700 47
2012-04-11 07:02:43 51°14.26 2°55.298 3.6 323 7.4 99690 47
2012-04-11 07:02:48 51°14.272 2°55.288 4.7 323 7.4 99690 47
2012-04-11 07:02:54 51°14.286 2°55.275 4.7 320 7.4 99700 47
2012-04-11 07:02:59 51°14.297 2°55.265 4.9 239 7.4 99700 47
2012-04-11 07:03:05 51°14.31 2°55.252 4.2 19 7.4 99700 46
2012-04-11 07:03:10 51°14.322 2°55.242 3.4 37 7.4 99700 46
2012-04-11 07:03:15 51°14.334 2°55.231 2.9 25 7.4 99690 46
2012-04-11 07:03:20 51°14.345 2°55.221 4.3 315 7.4 99690 46
2012-04-11 07:03:25 51°14.356 2°55.21 4.2 20 7.4 99700 46
2012-04-11 07:03:30 51°14.368 2°55.199 4.5 236 7.4 99700 46
2012-04-11 07:03:35 51°14.379 2°55.188 5.4 27 7.4 99700 46
2012-04-11 07:03:40 51°14.391 2°55.178 4.3 235 7.4 99700 46
2012-04-11 07:03:45 51°14.402 2°55.167 4.9 21 7.4 99690 45
2012-04-11 07:03:50 51°14.414 2°55.156 6.3 31 7.4 99690 45
2012-04-11 07:03:55 51°14.426 2°55.146 4.6 21 7.4 99690 47
2012-04-11 07:04:00 51°14.439 2°55.136 5.3 244 7.4 99690 47
2012-04-11 07:04:06 51°14.453 2°55.123 3.8 22 7.4 99690 46
2012-04-11 07:04:10 51°14.463 2°55.114 6.9 246 7.4 99690 46
2012-04-11 07:04:15 51°14.477 2°55.104 6.7 249 7.4 99700 46
2012-04-11 07:04:20 51°14.49 2°55.093 6.4 254 7.4 99700 46
2012-04-11 07:04:25 51°14.503 2°55.082 5.9 285 7.4 99700 47
2012-04-11 07:04:30 51°14.516 2°55.07 7.2 252 7.4 99700 47
2012-04-11 07:04:35 51°14.528 2°55.058 6.6 255 7.4 99690 46
2012-04-11 07:04:39 51°14.539 2°55.048 6.3 33 7.4 99690 46
2012-04-11 07:04:43 51°14.549 2°55.037 6.3 25 7.4 99690 45
2012-04-11 07:04:49 51°14.565 2°55.02 6.1 246 7.4 99690 45
2012-04-11 07:04:53 51°14.576 2°55.009 6.6 245 7.4 99690 46
2012-04-11 07:04:58 51°14.589 2°54.994 7.5 245 7.4 99690 46
2012-04-11 07:05:03 51°14.602 2°54.98 6.9 279 7.4 99700 47
2012-04-11 07:05:08 51°14.615 2°54.964 6.7 246 7.4 99700 47
2012-04-11 07:05:12 51°14.625 2°54.952 7.1 250 7.4 99700 46
2012-04-11 07:05:17 51°14.639 2°54.937 6.2 245 7.4 99700 46
2012-04-11 07:05:22 51°14.653 2°54.92 6 26 7.4 99690 46
2012-04-11 07:05:27 51°14.667 2°54.903 7 241 7.4 99690 46
2012-04-11 07:05:31 51°14.678 2°54.89 6.5 26 7.4 99710 46
2012-04-11 07:05:37 51°14.694 2°54.87 6.1 241 7.4 99710 46
2012-04-11 07:05:42 51°14.709 2°54.853 6.8 279 7.4 99700 46
2012-04-11 07:05:47 51°14.723 2°54.836 6.7 241 7.4 99700 46
2012-04-11 07:05:52 51°14.737 2°54.819 6.5 22 7.4 99700 46
2012-04-11 07:05:57 51°14.751 2°54.803 5.3 245 7.4 99700 46
2012-04-11 07:06:02 51°14.766 2°54.787 5.5 20 7.4 99700 46
2012-04-11 07:06:07 51°14.781 2°54.771 5.7 245 7.4 99700 46
2012-04-11 07:06:11 51°14.793 2°54.758 6.7 18 7.5 99690 46
2012-04-11 07:06:17 51°14.81 2°54.738 7.6 243 7.5 99690 46
2012-04-11 07:06:22 51°14.825 2°54.721 6.8 283 7.5 99690 45
2012-04-11 07:06:27 51°14.839 2°54.704 6.8 245 7.5 99690 45
2012-04-11 07:06:32 51°14.853 2°54.687 7.2 22 7.5 99700 47
2012-04-11 07:06:37 51°14.869 2°54.671 7.6 248 7.5 99700 47
2012-04-11 07:06:42 51°14.883 2°54.654 8.3 23 7.5 99690 46
2012-04-11 07:06:47 51°14.898 2°54.638 6.9 247 7.5 99690 46
2012-04-11 07:06:52 51°14.913 2°54.622 6.2 245 7.5 99700 47
2012-04-11 07:06:57 51°14.928 2°54.607 7 248 7.5 99700 47
2012-04-11 07:07:02 51°14.943 2°54.591 7 21 7.5 99710 46
2012-04-11 07:07:07 51°14.957 2°54.574 7.8 245 7.5 99710 46
2012-04-11 07:07:12 51°14.971 2°54.557 8.6 26 7.5 99700 47
2012-04-11 07:07:17 51°14.985 2°54.54 6.5 245 7.5 99700 47
2012-04-11 07:07:22 51°15 2°54.523 6.6 23 7.5 99710 46
2012-04-11 07:07:27 51°15.014 2°54.506 6.4 244 7.5 99710 46
2012-04-11 07:07:32 51°15.029 2°54.489 6.9 25 7.5 99700 46
2012-04-11 07:07:37 51°15.043 2°54.473 6.5 251 7.5 99700 46
2012-04-11 07:07:42 51°15.057 2°54.456 7.3 247 7.5 99700 46
2012-04-11 07:07:47 51°15.072 2°54.439 7 245 7.5 99700 46
2012-04-11 07:07:51 51°15.083 2°54.426 7.5 25 7.5 99700 47
2012-04-11 07:07:57 51°15.1 2°54.404 6.4 247 7.5 99700 47
2012-04-11 07:08:02 51°15.113 2°54.386 7.2 19 7.5 99700 47
2012-04-11 07:08:07 51°15.127 2°54.368 6.5 247 7.5 99700 47
2012-04-11 07:08:11 51°15.138 2°54.354 6.6 21 7.5 99710 47
2012-04-11 07:08:17 51°15.155 2°54.332 7.4 245 7.5 99710 47
2012-04-11 07:08:22 51°15.168 2°54.314 7.6 243 7.5 99700 47
2012-04-11 07:08:27 51°15.182 2°54.295 8.9 245 7.5 99700 47
2012-04-11 07:08:31 51°15.192 2°54.28 8.4 247 7.5 99700 47
2012-04-11 07:08:37 51°15.208 2°54.258 9.2 247 7.5 99700 47
2012-04-11 07:08:42 51°15.222 2°54.24 8.1 283 7.5 99710 47
2012-04-11 07:08:47 51°15.236 2°54.222 7.1 243 7.5 99710 47
2012-04-11 07:08:52 51°15.25 2°54.204 8.5 26 7.5 99710 46
2012-04-11 07:08:57 51°15.264 2°54.186 7.9 242 7.5 99710 46
2012-04-11 07:09:02 51°15.278 2°54.169 7.3 20 7.5 99700 45
2012-04-11 07:09:07 51°15.292 2°54.151 8.4 246 7.5 99700 45
2012-04-11 07:09:12 51°15.305 2°54.133 9.5 20 7.6 99710 47
2012-04-11 07:09:17 51°15.318 2°54.114 7.8 244 7.6 99710 47
2012-04-11 07:09:22 51°15.332 2°54.096 7.6 251 7.6 99700 47
2012-04-11 07:09:27 51°15.346 2°54.078 7.8 246 7.6 99700 47
2012-04-11 07:09:32 51°15.36 2°54.062 7.4 279 7.6 99700 47
2012-04-11 07:09:37 51°15.375 2°54.045 6.7 245 7.6 99700 47
2012-04-11 07:09:42 51°15.389 2°54.028 7.4 25 7.6 99700 46
2012-04-11 07:09:47 51°15.403 2°54.011 8.5 246 7.6 99700 46
2012-04-11 07:09:52 51°15.418 2°53.995 8.8 24 7.6 99680 47
2012-04-11 07:09:57 51°15.431 2°53.979 9 244 7.6 99680 47
2012-04-11 07:10:02 51°15.446 2°53.963 4.5 23 7.6 99680 46
2012-04-11 07:10:07 51°15.461 2°53.948 9.1 245 7.6 99680 46
2012-04-11 07:10:12 51°15.475 2°53.931 8.4 248 7.6 99680 47
2012-04-11 07:10:17 51°15.489 2°53.915 10.2 247 7.6 99680 47
2012-04-11 07:10:22 51°15.503 2°53.898 7.4 249 7.6 99680 47
2012-04-11 07:10:27 51°15.516 2°53.881 8.7 248 7.6 99680 47
2012-04-11 07:10:31 51°15.527 2°53.867 8.2 246 7.6 99670 47
2012-04-11 07:10:37 51°15.543 2°53.846 8.4 241 7.6 99670 47
2012-04-11 07:10:42 51°15.557 2°53.829 8.4 282 7.6 99680 47
2012-04-11 07:10:47 51°15.57 2°53.811 7.3 248 7.6 99680 47
2012-04-11 07:10:52 51°15.584 2°53.794 8 249 7.7 99670 47
2012-04-11 07:10:57 51°15.597 2°53.776 7.1 250 7.7 99670 47
2012-04-11 07:11:02 51°15.61 2°53.759 9 281 7.7 99680 47
2012-04-11 07:11:07 51°15.624 2°53.741 9.9 247 7.7 99680 47
2012-04-11 07:11:12 51°15.638 2°53.725 10.1 25 7.7 99680 47
2012-04-11 07:11:17 51°15.652 2°53.709 9 246 7.7 99680 47
2012-04-11 07:11:22 51°15.665 2°53.692 7.4 24 7.7 99670 46
2012-04-11 07:11:27 51°15.679 2°53.675 9.1 251 7.7 99670 46
2012-04-11 07:11:32 51°15.692 2°53.657 8.3 19 7.7 99680 47
2012-04-11 07:11:37 51°15.706 2°53.641 8.5 249 7.7 99680 47
2012-04-11 07:11:42 51°15.72 2°53.624 8.1 249 7.7 99670 45
2012-04-11 07:11:47 51°15.734 2°53.608 10 249 7.7 99670 45
2012-04-11 07:11:52 51°15.748 2°53.592 8.9 250 7.7 99680 46
2012-04-11 07:11:57 51°15.762 2°53.576 9.8 251 7.7 99680 46
2012-04-11 07:12:02 51°15.777 2°53.56 8.8 22 7.7 99680 46
2012-04-11 07:12:07 51°15.791 2°53.544 9 247 7.7 99680 46
2012-04-11 07:12:12 51°15.805 2°53.529 6.9 21 7.7 99680 47
2012-04-11 07:12:17 51°15.819 2°53.513 8.5 248 7.7 99680 47
2012-04-11 07:12:22 51°15.834 2°53.497 7.8 249 7.7 99670 46
2012-04-11 07:12:27 51°15.849 2°53.481 8.7 247 7.7 99670 46
2012-04-11 07:12:32 51°15.863 2°53.466 8.5 249 7.8 99670 47
2012-04-11 07:12:37 51°15.878 2°53.45 8.9 249 7.8 99670 47
2012-04-11 07:12:42 51°15.892 2°53.434 8 21 7.8 99670 46
2012-04-11 07:12:47 51°15.907 2°53.419 9.4 248 7.8 99670 46
2012-04-11 07:12:51 51°15.918 2°53.406 8.4 250 7.8 99670 47
2012-04-11 07:12:57 51°15.935 2°53.387 9.4 248 7.8 99670 47
2012-04-11 07:13:02 51°15.95 2°53.371 8 286 7.8 99670 47
2012-04-11 07:13:07 51°15.965 2°53.355 7.9 249 7.8 99670 47
2012-04-11 07:13:12 51°15.979 2°53.339 9.3 251 7.8 99670 46
2012-04-11 07:13:17 51°15.993 2°53.324 9.2 251 7.8 99670 46
2012-04-11 07:13:22 51°16.008 2°53.31 7.9 284 7.8 99670 47
2012-04-11 07:13:27 51°16.023 2°53.295 7.4 253 7.8 99670 47
2012-04-11 07:13:32 51°16.038 2°53.281 7.4 253 7.8 99670 46
2012-04-11 07:13:37 51°16.053 2°53.268 7 246 7.8 99670 46
2012-04-11 07:13:42 51°16.069 2°53.255 8.9 286 7.8 99670 46
2012-04-11 07:13:47 51°16.085 2°53.242 7.9 252 7.8 99670 46
2012-04-11 07:13:52 51°16.1 2°53.229 7.2 250 7.8 99670 47
2012-04-11 07:13:57 51°16.116 2°53.217 6.6 253 7.8 99670 47
2012-04-11 07:14:02 51°16.131 2°53.205 7.2 253 7.8 99680 47
2012-04-11 07:14:07 51°16.148 2°53.193 7.4 253 7.8 99680 47
2012-04-11 07:14:12 51°16.163 2°53.182 7.9 252 7.8 99680 46
2012-04-11 07:14:17 51°16.179 2°53.171 7.1 248 7.8 99680 46
2012-04-11 07:14:22 51°16.195 2°53.159 7.1 246 7.8 99680 46
2012-04-11 07:14:27 51°16.211 2°53.148 6.8 252 7.8 99680 46
2012-04-11 07:14:32 51°16.228 2°53.138 7.4 285 7.8 99680 47
2012-04-11 07:14:37 51°16.244 2°53.127 6.8 247 7.8 99680 47
2012-04-11 07:14:42 51°16.26 2°53.115 8.6 253 7.8 99680 47
2012-04-11 07:14:47 51°16.275 2°53.104 8 251 7.8 99680 47
2012-04-11 07:14:51 51°16.288 2°53.095 7.2 252 7.9 99680 47
2012-04-11 07:14:57 51°16.307 2°53.081 7.5 253 7.9 99680 47
2012-04-11 07:15:02 51°16.324 2°53.07 6.9 251 7.8 99680 46
2012-04-11 07:15:07 51°16.341 2°53.058 6.5 252 7.8 99680 46
2012-04-11 07:15:11 51°16.353 2°53.049 6.7 250 7.9 99680 47
2012-04-11 07:15:17 51°16.372 2°53.035 7.2 253 7.9 99680 47
2012-04-11 07:15:22 51°16.388 2°53.023 6 284 7.8 99680 47
2012-04-11 07:15:27 51°16.404 2°53.011 6.6 249 7.8 99680 47
2012-04-11 07:15:32 51°16.42 2°52.999 7 250 7.9 99670 46
2012-04-11 07:15:37 51°16.436 2°52.987 7.7 253 7.9 99670 46
2012-04-11 07:15:42 51°16.452 2°52.975 8.2 252 7.9 99680 46
2012-04-11 07:15:47 51°16.467 2°52.963 8.5 252 7.9 99680 46
2012-04-11 07:15:51 51°16.479 2°52.953 7.8 253 7.9 99680 46
2012-04-11 07:15:57 51°16.498 2°52.938 7 248 7.9 99680 46
2012-04-11 07:16:02 51°16.514 2°52.926 6.9 248 7.9 99680 46
2012-04-11 07:16:07 51°16.529 2°52.913 8.1 249 7.9 99680 46
2012-04-11 07:16:12 51°16.545 2°52.899 7.1 19 7.9 99680 47
2012-04-11 07:16:17 51°16.561 2°52.886 7.9 247 7.9 99680 47
2012-04-11 07:16:22 51°16.575 2°52.872 8.5 21 7.9 99680 45
2012-04-11 07:16:27 51°16.591 2°52.858 8.3 248 7.9 99680 45
2012-04-11 07:16:32 51°16.607 2°52.845 8.1 250 7.9 99670 46
2012-04-11 07:16:37 51°16.622 2°52.831 8.2 250 7.9 99670 46
2012-04-11 07:16:42 51°16.638 2°52.818 9 252 7.9 99670 45
2012-04-11 07:16:47 51°16.653 2°52.806 8.5 254 7.9 99670 45
2012-04-11 07:16:51 51°16.666 2°52.796 7.6 248 7.9 99670 46
2012-04-11 07:16:57 51°16.685 2°52.781 7.5 250 7.9 99670 46
2012-04-11 07:17:02 51°16.7 2°52.769 7.3 19 7.9 99670 45
2012-04-11 07:17:07 51°16.716 2°52.757 7.1 252 7.9 99670 45
2012-04-11 07:17:11 51°16.729 2°52.748 8.4 255 7.9 99670 46
2012-04-11 07:17:17 51°16.748 2°52.734 7.2 252 7.9 99670 46
2012-04-11 07:17:22 51°16.764 2°52.724 8.7 281 7.9 99670 47
2012-04-11 07:17:27 51°16.78 2°52.713 8.2 258 7.9 99670 47
2012-04-11 07:17:32 51°16.796 2°52.703 9.9 258 7.9 99680 45
2012-04-11 07:17:37 51°16.812 2°52.693 8.3 253 7.9 99680 45
2012-04-11 07:17:42 51°16.828 2°52.682 8.1 254 7.9 99680 46
2012-04-11 07:17:47 51°16.844 2°52.672 7.7 259 7.9 99680 46
2012-04-11 07:17:51 51°16.857 2°52.663 7.2 261 7.9 99670 45
2012-04-11 07:17:57 51°16.877 2°52.651 5.9 255 7.9 99670 45
2012-04-11 07:18:02 51°16.893 2°52.641 6.5 254 7.9 99670 46
2012-04-11 07:18:07 51°16.909 2°52.63 8 254 7.9 99670 46
2012-04-11 07:18:12 51°16.926 2°52.62 6.6 250 7.9 99680 45
2012-04-11 07:18:17 51°16.942 2°52.61 9.1 257 7.9 99680 45
2012-04-11 07:18:22 51°16.958 2°52.599 7.5 253 7.9 99680 47
2012-04-11 07:18:27 51°16.974 2°52.589 6 251 7.9 99680 47
2012-04-11 07:18:32 51°16.991 2°52.579 7.1 250 7.9 99670 47
2012-04-11 07:18:37 51°17.007 2°52.569 8.2 253 7.9 99670 47
2012-04-11 07:18:42 51°17.023 2°52.558 8.2 254 7.9 99680 47
2012-04-11 07:18:47 51°17.039 2°52.548 7.1 252 7.9 99680 47
2012-04-11 07:18:52 51°17.055 2°52.537 8.7 285 7.9 99670 46
2012-04-11 07:18:57 51°17.071 2°52.526 7.7 254 7.9 99670 46
2012-04-11 07:19:02 51°17.087 2°52.515 8.9 256 7.9 99670 47
2012-04-11 07:19:07 51°17.103 2°52.503 7.6 249 7.9 99670 47
2012-04-11 07:19:11 51°17.116 2°52.494 7.1 251 7.9 99670 46
2012-04-11 07:19:17 51°17.134 2°52.479 8.8 253 7.9 99670 46
2012-04-11 07:19:22 51°17.15 2°52.466 8.5 280 7.9 99670 46
2012-04-11 07:19:27 51°17.165 2°52.453 7.5 253 7.9 99670 46
2012-04-11 07:19:32 51°17.18 2°52.44 8.8 253 7.9 99670 46
2012-04-11 07:19:37 51°17.196 2°52.427 7.8 254 7.9 99670 46
2012-04-11 07:19:42 51°17.211 2°52.414 8.1 252 7.9 99670 46
2012-04-11 07:19:47 51°17.226 2°52.4 9 250 7.9 99670 46
2012-04-11 07:19:51 51°17.239 2°52.389 8.5 252 8 99670 47
2012-04-11 07:19:57 51°17.257 2°52.373 8.3 253 8 99670 47
2012-04-11 07:20:02 51°17.272 2°52.359 8.4 283 8 99670 47
2012-04-11 07:20:07 51°17.287 2°52.345 7.9 247 8 99670 47
2012-04-11 07:20:12 51°17.302 2°52.331 7.6 245 8 99670 47
2012-04-11 07:20:17 51°17.318 2°52.318 8.1 247 8 99670 47
2012-04-11 07:20:22 51°17.333 2°52.303 8.4 21 8 99660 47
2012-04-11 07:20:27 51°17.348 2°52.29 8.9 250 8 99660 47
2012-04-11 07:20:31 51°17.36 2°52.278 9.2 248 8 99670 46
2012-04-11 07:20:37 51°17.379 2°52.263 8.7 254 8 99670 46
2012-04-11 07:20:42 51°17.394 2°52.249 9 253 8 99670 46
2012-04-11 07:20:47 51°17.409 2°52.236 8.2 252 8 99670 46
2012-04-11 07:20:52 51°17.425 2°52.222 8.1 250 7.9 99670 46
2012-04-11 07:20:57 51°17.441 2°52.21 8.6 254 7.9 99670 46
2012-04-11 07:21:02 51°17.456 2°52.196 9 255 7.9 99670 46
2012-04-11 07:21:07 51°17.471 2°52.183 8.7 254 7.9 99670 46
2012-04-11 07:21:12 51°17.487 2°52.17 9.1 255 7.9 99670 47
2012-04-11 07:21:17 51°17.503 2°52.157 9.5 251 7.9 99670 47
2012-04-11 07:21:22 51°17.518 2°52.144 7 250 7.9 99660 46
2012-04-11 07:21:27 51°17.533 2°52.131 8.8 254 7.9 99660 46
2012-04-11 07:21:32 51°17.549 2°52.118 8.5 252 7.9 99660 46
2012-04-11 07:21:37 51°17.564 2°52.105 9.3 253 7.9 99660 46
2012-04-11 07:21:42 51°17.58 2°52.092 8.2 286 7.9 99670 46
2012-04-11 07:21:47 51°17.595 2°52.079 8.2 254 7.9 99670 46
2012-04-11 07:21:52 51°17.612 2°52.067 7.3 249 7.9 99670 47
2012-04-11 07:21:57 51°17.628 2°52.055 8.1 252 7.9 99670 47
2012-04-11 07:22:02 51°17.643 2°52.042 8.1 251 7.9 99670 46
2012-04-11 07:22:07 51°17.659 2°52.03 8.1 250 7.9 99670 46
2012-04-11 07:22:11 51°17.672 2°52.021 7.9 248 7.9 99670 46
2012-04-11 07:22:17 51°17.69 2°52.007 10 251 7.9 99670 46
2012-04-11 07:22:22 51°17.706 2°51.996 10.9 283 7.9 99670 46
2012-04-11 07:22:27 51°17.722 2°51.985 9.5 253 7.9 99670 46
2012-04-11 07:22:32 51°17.738 2°51.974 9.8 252 7.9 99670 46
2012-04-11 07:22:37 51°17.754 2°51.964 8.3 250 7.9 99670 46
2012-04-11 07:22:42 51°17.77 2°51.954 7.9 252 7.9 99670 46
2012-04-11 07:22:47 51°17.786 2°51.944 10.9 253 7.9 99670 46
2012-04-11 07:22:52 51°17.802 2°51.935 9.9 255 7.9 99670 46
2012-04-11 07:22:57 51°17.819 2°51.926 9.6 258 7.9 99670 46
2012-04-11 07:23:02 51°17.835 2°51.917 8 255 7.9 99670 47
2012-04-11 07:23:07 51°17.852 2°51.907 7.7 255 7.9 99670 47
2012-04-11 07:23:12 51°17.868 2°51.897 7.8 253 7.9 99670 46
2012-04-11 07:23:17 51°17.884 2°51.887 9.7 257 7.9 99670 46
2012-04-11 07:23:22 51°17.901 2°51.878 8.3 253 7.9 99670 47
2012-04-11 07:23:27 51°17.918 2°51.868 8.5 257 7.9 99670 47
2012-04-11 07:23:32 51°17.933 2°51.858 8.2 254 7.9 99680 46
2012-04-11 07:23:37 51°17.95 2°51.848 9.2 253 7.9 99680 46
2012-04-11 07:23:42 51°17.966 2°51.838 8.1 253 7.9 99670 47
2012-04-11 07:23:47 51°17.982 2°51.828 9.2 250 7.9 99670 47
2012-04-11 07:23:51 51°17.996 2°51.82 8.8 255 7.9 99680 46
2012-04-11 07:23:57 51°18.015 2°51.808 7.9 253 7.9 99680 46
2012-04-11 07:24:02 51°18.031 2°51.797 7.6 252 7.9 99680 47
2012-04-11 07:24:07 51°18.047 2°51.786 9.3 257 7.9 99680 47
2012-04-11 07:24:11 51°18.06 2°51.778 8.6 254 7.9 99680 46
2012-04-11 07:24:17 51°18.08 2°51.765 9 256 7.9 99680 46
2012-04-11 07:24:22 51°18.096 2°51.754 9.1 283 7.9 99680 47
2012-04-11 07:24:27 51°18.112 2°51.744 8.6 255 7.9 99680 47
2012-04-11 07:24:32 51°18.128 2°51.733 7.7 253 7.9 99670 47
2012-04-11 07:24:37 51°18.144 2°51.721 8.7 248 7.9 99670 47
2012-04-11 07:24:42 51°18.161 2°51.71 10.5 284 7.9 99670 47
2012-04-11 07:24:47 51°18.177 2°51.699 9.5 250 7.9 99670 47
2012-04-11 07:24:52 51°18.193 2°51.687 9.9 253 7.9 99680 47
2012-04-11 07:24:57 51°18.209 2°51.675 9.5 253 7.9 99680 47
2012-04-11 07:25:02 51°18.224 2°51.663 8.2 252 7.9 99670 46
2012-04-11 07:25:07 51°18.24 2°51.65 7.8 251 7.9 99670 46
2012-04-11 07:25:12 51°18.255 2°51.637 8.6 246 7.9 99670 47
2012-04-11 07:25:17 51°18.271 2°51.624 8.8 256 7.9 99670 47
2012-04-11 07:25:22 51°18.286 2°51.611 8.2 252 7.9 99670 46
2012-04-11 07:25:27 51°18.302 2°51.597 8.6 247 7.9 99670 46
2012-04-11 07:25:32 51°18.317 2°51.583 9.7 249 7.9 99680 47
2012-04-11 07:25:37 51°18.332 2°51.57 9.3 254 7.9 99680 47
2012-04-11 07:25:42 51°18.347 2°51.556 9.2 255 7.9 99670 46
2012-04-11 07:25:47 51°18.363 2°51.544 7.2 252 7.9 99670 46
2012-04-11 07:25:52 51°18.379 2°51.53 8.9 247 7.9 99670 46
2012-04-11 07:25:57 51°18.395 2°51.517 8.3 246 7.9 99670 46
2012-04-11 07:26:02 51°18.41 2°51.505 9 250 7.9 99680 46
2012-04-11 07:26:07 51°18.426 2°51.493 10 253 7.9 99680 46
2012-04-11 07:26:11 51°18.439 2°51.483 8.7 251 7.9 99680 47
2012-04-11 07:26:17 51°18.458 2°51.467 8.6 253 7.9 99680 47
2012-04-11 07:26:22 51°18.473 2°51.454 9.9 281 7.9 99680 48
2012-04-11 07:26:27 51°18.489 2°51.442 9 254 7.9 99680 48
2012-04-11 07:26:32 51°18.505 2°51.429 8.5 248 7.9 99670 48
2012-04-11 07:26:37 51°18.52 2°51.417 8.6 254 7.9 99670 48
2012-04-11 07:26:42 51°18.536 2°51.406 8.8 253 7.9 99680 46
2012-04-11 07:26:47 51°18.553 2°51.395 8.1 248 7.9 99680 46
2012-04-11 07:26:51 51°18.566 2°51.386 7.7 251 7.9 99670 47
2012-04-11 07:26:57 51°18.585 2°51.373 8.8 254 7.9 99670 47
2012-04-11 07:27:02 51°18.601 2°51.362 8.3 254 7.8 99680 48
2012-04-11 07:27:07 51°18.618 2°51.35 8.8 247 7.8 99680 48
2012-04-11 07:27:12 51°18.633 2°51.339 7.1 250 7.9 99680 48
2012-04-11 07:27:17 51°18.649 2°51.327 7.5 246 7.9 99680 48
2012-04-11 07:27:22 51°18.665 2°51.314 8.4 251 7.9 99680 47
2012-04-11 07:27:27 51°18.68 2°51.301 9.2 249 7.9 99680 47
2012-04-11 07:27:32 51°18.696 2°51.288 8.1 250 7.9 99680 48
2012-04-11 07:27:37 51°18.712 2°51.276 9.5 256 7.9 99680 48
2012-04-11 07:27:42 51°18.728 2°51.263 8.9 251 7.9 99680 46
2012-04-11 07:27:47 51°18.744 2°51.25 8.9 255 7.9 99680 46
2012-04-11 07:27:52 51°18.759 2°51.238 8.3 281 7.9 99680 47
2012-04-11 07:27:57 51°18.775 2°51.225 9.6 252 7.9 99680 47
2012-04-11 07:28:02 51°18.792 2°51.214 10 254 7.9 99670 48
2012-04-11 07:28:07 51°18.808 2°51.202 8.6 252 7.9 99670 48
2012-04-11 07:28:12 51°18.824 2°51.191 8.8 254 7.9 99680 48
2012-04-11 07:28:17 51°18.84 2°51.18 9.5 258 7.9 99680 48
2012-04-11 07:28:22 51°18.857 2°51.169 9.2 253 7.9 99680 48
2012-04-11 07:28:27 51°18.873 2°51.159 9.4 254 7.9 99680 48
2012-04-11 07:28:31 51°18.886 2°51.15 6.5 249 7.9 99680 47
2012-04-11 07:28:37 51°18.906 2°51.137 9.1 250 7.9 99680 47
2012-04-11 07:28:42 51°18.921 2°51.126 9.3 253 7.9 99680 47
2012-04-11 07:28:47 51°18.937 2°51.115 10.5 254 7.9 99680 47
2012-04-11 07:28:51 51°18.95 2°51.105 11.2 254 7.9 99670 47
2012-04-11 07:28:57 51°18.969 2°51.091 9.9 256 7.9 99670 47
2012-04-11 07:29:02 51°18.985 2°51.078 9.5 283 7.9 99690 48
2012-04-11 07:29:07 51°19 2°51.065 9.6 253 7.9 99690 48
2012-04-11 07:29:12 51°19.016 2°51.051 9.1 253 7.9 99670 47
2012-04-11 07:29:17 51°19.032 2°51.039 10.4 256 7.9 99670 47
2012-04-11 07:29:22 51°19.047 2°51.025 11.1 281 7.9 99670 48
2012-04-11 07:29:27 51°19.062 2°51.012 9.7 255 7.9 99670 48
2012-04-11 07:29:32 51°19.078 2°50.999 11 255 7.9 99670 47
2012-04-11 07:29:37 51°19.094 2°50.985 9 250 7.9 99670 47
2012-04-11 07:29:42 51°19.109 2°50.971 9.3 246 7.9 99680 48
2012-04-11 07:29:47 51°19.125 2°50.958 8.8 253 7.9 99680 48
2012-04-11 07:29:52 51°19.14 2°50.945 10.2 252 7.8 99670 47
2012-04-11 07:29:57 51°19.156 2°50.933 11.2 252 7.8 99670 47
2012-04-11 07:30:02 51°19.172 2°50.92 10.7 253 7.9 99680 48
2012-04-11 07:30:07 51°19.187 2°50.908 10.7 256 7.9 99680 48
2012-04-11 07:30:12 51°19.203 2°50.896 12.2 254 7.9 99670 48
2012-04-11 07:30:17 51°19.22 2°50.885 9.1 257 7.9 99670 48
2012-04-11 07:30:22 51°19.236 2°50.874 9.4 256 7.9 99670 46
2012-04-11 07:30:27 51°19.253 2°50.863 8.5 253 7.9 99670 46
2012-04-11 07:30:31 51°19.265 2°50.854 10.4 255 7.9 99670 47
2012-04-11 07:30:37 51°19.285 2°50.841 10.2 254 7.9 99670 47
2012-04-11 07:30:42 51°19.302 2°50.83 9.6 280 7.8 99680 47
2012-04-11 07:30:47 51°19.318 2°50.819 10 255 7.8 99680 47
2012-04-11 07:30:52 51°19.334 2°50.808 9.9 255 7.8 99680 48
2012-04-11 07:30:57 51°19.349 2°50.797 8.2 251 7.8 99680 48
2012-04-11 07:31:02 51°19.366 2°50.786 4.4 253 7.8 99680 47
2012-04-11 07:31:07 51°19.382 2°50.774 10 254 7.8 99680 47
2012-04-11 07:31:11 51°19.394 2°50.764 10 255 7.9 99670 47
2012-04-11 07:31:17 51°19.414 2°50.751 9.6 255 7.9 99670 47
2012-04-11 07:31:22 51°19.43 2°50.739 10.9 280 7.8 99670 47
2012-04-11 07:31:27 51°19.446 2°50.728 10.1 255 7.8 99670 47
2012-04-11 07:31:32 51°19.462 2°50.716 11.5 258 7.8 99670 47
2012-04-11 07:31:37 51°19.478 2°50.704 9.9 255 7.8 99670 47
2012-04-11 07:31:42 51°19.494 2°50.692 10.5 255 7.8 99670 48
2012-04-11 07:31:47 51°19.51 2°50.679 7.6 251 7.8 99670 48
2012-04-11 07:31:52 51°19.526 2°50.666 9.8 254 7.8 99680 47
2012-04-11 07:31:57 51°19.541 2°50.654 8.9 249 7.8 99680 47
2012-04-11 07:32:02 51°19.557 2°50.641 9.7 254 7.8 99670 47
2012-04-11 07:32:07 51°19.573 2°50.628 10.9 256 7.8 99670 47
2012-04-11 07:32:12 51°19.589 2°50.616 11.7 254 7.8 99670 46
2012-04-11 07:32:17 51°19.605 2°50.604 9.5 256 7.8 99670 46
2012-04-11 07:32:22 51°19.621 2°50.591 11.3 258 7.8 99670 47
2012-04-11 07:32:27 51°19.636 2°50.578 8.3 254 7.8 99670 47
2012-04-11 07:32:32 51°19.651 2°50.564 9.1 281 7.8 99670 46
2012-04-11 07:32:37 51°19.667 2°50.55 11.2 256 7.8 99670 46
2012-04-11 07:32:42 51°19.683 2°50.537 11.8 258 7.8 99670 47
2012-04-11 07:32:47 51°19.698 2°50.523 9.9 251 7.8 99670 47
2012-04-11 07:32:51 51°19.711 2°50.513 9.1 257 7.8 99670 46
2012-04-11 07:32:57 51°19.73 2°50.497 9.8 257 7.8 99670 46
2012-04-11 07:33:02 51°19.746 2°50.484 9.4 284 7.8 99670 45
2012-04-11 07:33:07 51°19.762 2°50.473 10.1 250 7.8 99670 45
2012-04-11 07:33:12 51°19.778 2°50.46 9.3 252 7.8 99670 46
2012-04-11 07:33:17 51°19.794 2°50.449 11.5 258 7.8 99670 46
2012-04-11 07:33:22 51°19.81 2°50.437 10.1 258 7.8 99680 46
2012-04-11 07:33:27 51°19.825 2°50.424 12.3 256 7.8 99680 46
2012-04-11 07:33:31 51°19.839 2°50.415 11.3 255 7.9 99680 47
2012-04-11 07:33:37 51°19.858 2°50.401 11.4 258 7.9 99680 47
2012-04-11 07:33:42 51°19.874 2°50.389 9.2 284 7.9 99680 47
2012-04-11 07:33:47 51°19.89 2°50.378 12 258 7.9 99680 47
2012-04-11 07:33:52 51°19.907 2°50.367 10.2 256 7.9 99670 47
2012-04-11 07:33:57 51°19.923 2°50.355 8.5 256 7.9 99670 47
2012-04-11 07:34:02 51°19.939 2°50.345 9.1 256 7.9 99680 46
2012-04-11 07:34:07 51°19.956 2°50.334 12.3 257 7.9 99680 46
2012-04-11 07:34:12 51°19.972 2°50.323 9.1 255 7.9 99680 47
2012-04-11 07:34:17 51°19.988 2°50.311 10.6 257 7.9 99680 47
2012-04-11 07:34:22 51°20.004 2°50.3 9.2 254 7.9 99680 46
2012-04-11 07:34:27 51°20.02 2°50.288 7.8 251 7.9 99680 46
2012-04-11 07:34:32 51°20.037 2°50.277 8.2 252 7.9 99680 46
2012-04-11 07:34:37 51°20.053 2°50.265 8.8 256 7.9 99680 46
2012-04-11 07:34:42 51°20.069 2°50.254 10.5 257 7.9 99680 46
2012-04-11 07:34:47 51°20.085 2°50.242 9.3 257 7.9 99680 46
2012-04-11 07:34:51 51°20.098 2°50.233 9.8 256 7.9 99680 46
2012-04-11 07:34:57 51°20.117 2°50.219 9.2 253 7.9 99680 46
2012-04-11 07:35:02 51°20.134 2°50.207 11.6 255 7.9 99680 47
2012-04-11 07:35:07 51°20.149 2°50.196 9.6 256 7.9 99680 47
2012-04-11 07:35:11 51°20.161 2°50.185 10.2 258 7.9 99680 46
2012-04-11 07:35:17 51°20.181 2°50.172 12.5 258 7.9 99680 46
2012-04-11 07:35:22 51°20.198 2°50.159 11.8 281 7.9 99680 46
2012-04-11 07:35:27 51°20.213 2°50.146 10.8 256 7.9 99680 46
2012-04-11 07:35:32 51°20.229 2°50.133 8.7 255 7.9 99680 47
2012-04-11 07:35:37 51°20.244 2°50.119 8.5 258 7.9 99680 47
2012-04-11 07:35:42 51°20.26 2°50.106 8.7 18 7.9 99680 46
2012-04-11 07:35:47 51°20.274 2°50.09 9.3 245 7.9 99680 46
2012-04-11 07:35:51 51°20.286 2°50.078 9.2 250 7.9 99670 45
2012-04-11 07:35:57 51°20.303 2°50.058 10.8 248 7.9 99670 45
2012-04-11 07:36:02 51°20.317 2°50.041 2.8 281 7.9 99680 46
2012-04-11 07:36:07 51°20.331 2°50.024 9.5 247 7.9 99680 46
2012-04-11 07:36:12 51°20.345 2°50.006 12.1 21 7.9 99670 46
2012-04-11 07:36:17 51°20.358 2°49.988 13 249 7.9 99670 46
2012-04-11 07:36:22 51°20.371 2°49.968 13.7 251 8 99670 46
2012-04-11 07:36:27 51°20.384 2°49.949 11.2 247 8 99670 46
2012-04-11 07:36:32 51°20.397 2°49.93 5.2 247 7.9 99670 46
2012-04-11 07:36:37 51°20.411 2°49.911 10.7 246 7.9 99670 46
2012-04-11 07:36:42 51°20.424 2°49.891 11.5 248 7.9 99660 46
2012-04-11 07:36:47 51°20.436 2°49.872 10.4 250 7.9 99660 46
2012-04-11 07:36:52 51°20.449 2°49.851 5.2 249 7.9 99660 46
2012-04-11 07:36:57 51°20.463 2°49.832 5.3 250 7.9 99660 46
2012-04-11 07:37:02 51°20.475 2°49.812 9.3 280 7.9 99660 46
2012-04-11 07:37:07 51°20.489 2°49.792 10 247 7.9 99660 46
2012-04-11 07:37:12 51°20.502 2°49.772 11.9 247 7.9 99660 46
2012-04-11 07:37:17 51°20.515 2°49.753 11.7 248 7.9 99660 46
2012-04-11 07:37:22 51°20.528 2°49.733 11.3 246 7.9 99660 46
2012-04-11 07:37:27 51°20.541 2°49.714 3.8 250 7.9 99660 46
2012-04-11 07:37:31 51°20.552 2°49.698 5.6 251 7.9 99670 46
2012-04-11 07:37:37 51°20.568 2°49.675 11.6 250 7.9 99670 46
2012-04-11 07:37:42 51°20.582 2°49.655 10.3 286 7.9 99660 46
2012-04-11 07:37:47 51°20.595 2°49.635 9.7 251 7.9 99660 46
2012-04-11 07:37:52 51°20.608 2°49.615 10.3 20 7.9 99660 46
2012-04-11 07:37:57 51°20.621 2°49.595 5.5 248 7.9 99660 46
2012-04-11 07:38:02 51°20.635 2°49.576 10.2 246 7.9 99660 46
2012-04-11 07:38:07 51°20.648 2°49.556 10.5 242 7.9 99660 46
2012-04-11 07:38:11 51°20.659 2°49.541 10.2 246 7.9 99670 47
2012-04-11 07:38:17 51°20.675 2°49.518 11.2 249 7.9 99670 47
2012-04-11 07:38:22 51°20.69 2°49.5 10.6 282 7.9 99670 44
2012-04-11 07:38:27 51°20.704 2°49.482 10.1 251 7.9 99670 44
2012-04-11 07:38:32 51°20.718 2°49.464 12.2 20 8 99660 46
2012-04-11 07:38:37 51°20.733 2°49.447 10 250 8 99660 46
2012-04-11 07:38:42 51°20.747 2°49.429 9.6 248 8 99670 46
2012-04-11 07:38:47 51°20.761 2°49.412 8.9 251 8 99670 46
2012-04-11 07:38:52 51°20.776 2°49.394 10.9 251 7.9 99670 46
2012-04-11 07:38:57 51°20.791 2°49.377 9.2 251 7.9 99670 46
2012-04-11 07:39:02 51°20.806 2°49.36 9.9 254 7.9 99670 45
2012-04-11 07:39:07 51°20.821 2°49.343 10 251 7.9 99670 45
2012-04-11 07:39:12 51°20.835 2°49.326 4.3 246 7.9 99670 46
2012-04-11 07:39:17 51°20.851 2°49.31 8.3 250 7.9 99670 46
2012-04-11 07:39:22 51°20.865 2°49.293 11.5 246 7.9 99670 46
2012-04-11 07:39:27 51°20.88 2°49.276 10.7 247 7.9 99670 46
2012-04-11 07:39:31 51°20.892 2°49.262 5.1 250 7.9 99670 46
2012-04-11 07:39:37 51°20.91 2°49.242 11.2 248 7.9 99670 46
2012-04-11 07:39:42 51°20.924 2°49.224 10.8 280 7.9 99680 45
2012-04-11 07:39:47 51°20.939 2°49.207 2.8 250 7.9 99680 45
2012-04-11 07:39:52 51°20.953 2°49.19 11.8 252 7.9 99670 46
2012-04-11 07:39:57 51°20.968 2°49.173 8.3 251 7.9 99670 46
2012-04-11 07:40:02 51°20.983 2°49.157 10.4 278 7.9 99670 46
2012-04-11 07:40:07 51°20.998 2°49.14 10.9 252 7.9 99670 46
2012-04-11 07:40:11 51°21.01 2°49.127 9.3 253 7.9 99670 46
2012-04-11 07:40:17 51°21.027 2°49.105 4.4 253 7.9 99670 46
2012-04-11 07:40:22 51°21.041 2°49.088 10.5 287 7.9 99680 46
2012-04-11 07:40:27 51°21.054 2°49.071 10 248 7.9 99680 46
2012-04-11 07:40:32 51°21.067 2°49.053 10.2 245 8 99670 47
2012-04-11 07:40:37 51°21.081 2°49.036 10.9 250 8 99670 47
2012-04-11 07:40:42 51°21.094 2°49.018 5.9 279 8 99680 46
2012-04-11 07:40:47 51°21.107 2°49.001 10.3 249 8 99680 46
2012-04-11 07:40:52 51°21.119 2°48.982 5.5 249 8 99680 46
2012-04-11 07:40:57 51°21.132 2°48.964 10.3 253 8 99680 46
2012-04-11 07:41:02 51°21.145 2°48.947 9.5 19 8 99680 45
2012-04-11 07:41:07 51°21.158 2°48.929 9.7 249 8 99680 45
2012-04-11 07:41:12 51°21.17 2°48.911 3.7 252 8 99670 47
2012-04-11 07:41:17 51°21.183 2°48.893 8.9 249 8 99670 47
2012-04-11 07:41:22 51°21.196 2°48.875 5.5 281 8 99670 46
2012-04-11 07:41:27 51°21.209 2°48.858 12.1 250 8 99670 46
2012-04-11 07:41:32 51°21.222 2°48.839 5.4 250 8 99670 45
2012-04-11 07:41:37 51°21.234 2°48.822 11.4 252 8 99670 45
2012-04-11 07:41:42 51°21.247 2°48.804 9.7 249 8 99670 46
2012-04-11 07:41:47 51°21.261 2°48.788 10.5 253 8 99670 46
2012-04-11 07:41:51 51°21.272 2°48.774 10.9 252 8 99670 45
2012-04-11 07:41:57 51°21.288 2°48.754 10.3 249 8 99670 45
2012-04-11 07:42:02 51°21.302 2°48.739 10.9 283 8 99670 47
2012-04-11 07:42:07 51°21.316 2°48.723 11.4 251 8 99670 47
2012-04-11 07:42:12 51°21.33 2°48.708 4.4 252 8 99670 46
2012-04-11 07:42:17 51°21.344 2°48.694 9.3 254 8 99670 46
2012-04-11 07:42:22 51°21.359 2°48.68 8.4 254 8 99680 46
2012-04-11 07:42:27 51°21.373 2°48.666 11.6 254 8 99680 46
2012-04-11 07:42:31 51°21.385 2°48.655 10.7 255 8 99670 46
2012-04-11 07:42:37 51°21.403 2°48.638 11 257 8 99670 46
2012-04-11 07:42:42 51°21.418 2°48.626 10.1 282 8 99680 47
2012-04-11 07:42:47 51°21.433 2°48.614 5.5 255 8 99680 47
2012-04-11 07:42:52 51°21.448 2°48.602 10.2 257 8 99680 47
2012-04-11 07:42:57 51°21.463 2°48.591 12.2 260 8 99680 47
2012-04-11 07:43:02 51°21.478 2°48.579 7.5 279 8 99680 47
2012-04-11 07:43:07 51°21.494 2°48.568 9.1 256 8 99680 47
2012-04-11 07:43:12 51°21.51 2°48.558 9.3 257 8 99680 46
2012-04-11 07:43:17 51°21.525 2°48.548 9.4 255 8 99680 46
2012-04-11 07:43:22 51°21.542 2°48.539 9.8 256 8 99680 46
2012-04-11 07:43:27 51°21.558 2°48.529 11.7 259 8 99680 46
2012-04-11 07:43:32 51°21.575 2°48.521 10 283 8 99690 46
2012-04-11 07:43:37 51°21.591 2°48.512 9.2 258 8 99690 46
2012-04-11 07:43:42 51°21.608 2°48.503 8.1 257 8 99690 46
2012-04-11 07:43:47 51°21.624 2°48.494 9.9 258 8 99690 46
2012-04-11 07:43:52 51°21.642 2°48.487 9.7 259 8 99690 46
2012-04-11 07:43:57 51°21.658 2°48.478 9 255 8 99690 46
2012-04-11 07:44:02 51°21.675 2°48.471 9.5 286 8 99690 46
2012-04-11 07:44:07 51°21.691 2°48.462 7.5 263 8 99690 46
2012-04-11 07:44:12 51°21.708 2°48.454 9 260 8 99680 45
2012-04-11 07:44:17 51°21.725 2°48.445 8.4 263 8 99680 45
2012-04-11 07:44:22 51°21.742 2°48.437 7.4 258 8 99690 46
2012-04-11 07:44:27 51°21.759 2°48.429 9.3 260 8 99690 46
2012-04-11 07:44:31 51°21.773 2°48.422 9.5 258 8 99690 45
2012-04-11 07:44:37 51°21.794 2°48.412 9.7 256 8 99690 45
2012-04-11 07:44:42 51°21.81 2°48.404 10.8 285 8 99690 46
2012-04-11 07:44:47 51°21.827 2°48.395 10.8 259 8 99690 46
2012-04-11 07:44:52 51°21.844 2°48.387 9.9 257 8 99690 45
2012-04-11 07:44:57 51°21.861 2°48.378 9.7 264 8 99690 45
2012-04-11 07:45:02 51°21.879 2°48.37 8.9 286 8 99690 46
2012-04-11 07:45:07 51°21.895 2°48.361 8 257 8 99690 46
2012-04-11 07:45:11 51°21.908 2°48.354 8.5 257 8 99680 45
2012-04-11 07:45:17 51°21.928 2°48.343 9.4 257 8 99680 45
2012-04-11 07:45:22 51°21.945 2°48.334 9.7 260 8 99690 45
2012-04-11 07:45:27 51°21.962 2°48.326 8.2 257 8 99690 45
2012-04-11 07:45:32 51°21.979 2°48.318 7.5 254 8 99680 45
2012-04-11 07:45:37 51°21.995 2°48.307 10.9 258 8 99680 45
2012-04-11 07:45:42 51°22.013 2°48.298 11.2 260 8 99680 46
2012-04-11 07:45:47 51°22.029 2°48.287 9.5 254 8 99680 46
2012-04-11 07:45:52 51°22.046 2°48.278 11.1 258 8 99690 46
2012-04-11 07:45:57 51°22.063 2°48.266 10.2 260 8 99690 46
2012-04-11 07:46:02 51°22.079 2°48.256 11.6 258 8 99680 46
2012-04-11 07:46:07 51°22.096 2°48.245 8.7 261 8 99680 46
2012-04-11 07:46:11 51°22.109 2°48.236 8.6 263 8 99680 46
2012-04-11 07:46:17 51°22.128 2°48.222 10 261 8 99680 46
2012-04-11 07:46:22 51°22.145 2°48.211 11 259 8 99690 44
2012-04-11 07:46:27 51°22.162 2°48.199 11.3 261 8 99690 44
2012-04-11 07:46:31 51°22.175 2°48.189 7.9 261 8 99680 46
2012-04-11 07:46:37 51°22.194 2°48.177 10 257 8 99680 46
2012-04-11 07:46:42 51°22.21 2°48.166 10.3 257 8 99690 45
2012-04-11 07:46:47 51°22.227 2°48.156 8.3 258 8 99690 45
2012-04-11 07:46:51 51°22.24 2°48.147 10.1 260 8 99680 45
2012-04-11 07:46:57 51°22.26 2°48.133 8.9 261 8 99680 45
2012-04-11 07:47:02 51°22.277 2°48.122 9.2 256 8 99690 45
2012-04-11 07:47:07 51°22.293 2°48.111 8.6 257 8 99690 45
2012-04-11 07:47:12 51°22.309 2°48.1 7.3 260 8 99690 45
2012-04-11 07:47:17 51°22.326 2°48.09 8.1 261 8 99690 45
2012-04-11 07:47:22 51°22.343 2°48.081 9.5 261 8 99690 46
2012-04-11 07:47:27 51°22.36 2°48.072 7.9 262 8 99690 46
2012-04-11 07:47:32 51°22.377 2°48.063 8.8 262 8 99680 44
2012-04-11 07:47:37 51°22.394 2°48.055 6.2 262 8 99680 44
2012-04-11 07:47:42 51°22.41 2°48.047 7.6 261 8 99690 44
2012-04-11 07:47:47 51°22.427 2°48.038 5.9 262 8 99690 44
2012-04-11 07:47:52 51°22.444 2°48.03 7.3 260 8 99690 45
2012-04-11 07:47:57 51°22.461 2°48.022 8.5 255 8 99690 45
2012-04-11 07:48:02 51°22.478 2°48.014 8.9 260 8 99690 45
2012-04-11 07:48:07 51°22.495 2°48.006 7.8 262 8 99690 45
2012-04-11 07:48:12 51°22.512 2°47.998 9.5 259 8 99690 46
2012-04-11 07:48:17 51°22.529 2°47.989 10.5 259 8 99690 46
2012-04-11 07:48:22 51°22.546 2°47.979 11.1 260 8 99700 45
2012-04-11 07:48:27 51°22.563 2°47.97 9.4 260 8 99700 45
2012-04-11 07:48:31 51°22.576 2°47.963 8.7 260 8 99690 45
2012-04-11 07:48:37 51°22.596 2°47.952 8.4 260 8 99690 45
2012-04-11 07:48:42 51°22.612 2°47.942 8.4 254 8 99690 45
2012-04-11 07:48:47 51°22.629 2°47.932 9.1 260 8 99690 45
2012-04-11 07:48:52 51°22.646 2°47.922 8.8 261 8 99690 46
2012-04-11 07:48:57 51°22.662 2°47.911 8.2 256 8 99690 46
2012-04-11 07:49:02 51°22.679 2°47.9 9.2 259 8 99690 44
2012-04-11 07:49:07 51°22.696 2°47.89 8.6 260 8 99690 44
2012-04-11 07:49:11 51°22.709 2°47.881 10.7 260 8 99690 45
2012-04-11 07:49:17 51°22.729 2°47.87 10.9 257 8 99690 45
2012-04-11 07:49:22 51°22.746 2°47.86 9.5 257 8 99690 45
2012-04-11 07:49:27 51°22.763 2°47.85 8.9 256 8 99690 45
2012-04-11 07:49:32 51°22.78 2°47.84 10 255 8 99690 45
2012-04-11 07:49:37 51°22.797 2°47.829 10.9 255 8 99690 45
2012-04-11 07:49:42 51°22.813 2°47.818 8.7 252 8 99690 46
2012-04-11 07:49:47 51°22.83 2°47.808 9 257 8 99690 46
2012-04-11 07:49:51 51°22.843 2°47.799 7.4 251 8 99690 45
2012-04-11 07:49:57 51°22.863 2°47.786 9.7 255 8 99690 45
2012-04-11 07:50:02 51°22.879 2°47.775 8.9 257 8 99690 46
2012-04-11 07:50:07 51°22.897 2°47.764 9.7 254 8 99690 46
2012-04-11 07:50:12 51°22.915 2°47.754 8.8 258 8 99690 46
2012-04-11 07:50:17 51°22.93 2°47.744 11.8 260 8 99690 46
2012-04-11 07:50:22 51°22.948 2°47.735 11.5 261 8 99690 46
2012-04-11 07:50:27 51°22.965 2°47.725 10.5 260 8 99690 46
2012-04-11 07:50:32 51°22.981 2°47.715 11.5 261 8 99690 46
2012-04-11 07:50:37 51°22.998 2°47.706 7.8 264 8 99690 46
2012-04-11 07:50:42 51°23.016 2°47.697 7 263 8 99700 46
2012-04-11 07:50:47 51°23.033 2°47.688 8.5 262 8 99700 46
2012-04-11 07:50:51 51°23.047 2°47.68 7.2 265 8 99690 46
2012-04-11 07:50:57 51°23.067 2°47.669 9.3 260 8 99690 46
2012-04-11 07:51:02 51°23.084 2°47.66 8.6 262 8 99690 46
2012-04-11 07:51:07 51°23.101 2°47.651 9.9 259 8 99690 46
2012-04-11 07:51:12 51°23.118 2°47.643 8.1 259 8 99690 46
2012-04-11 07:51:17 51°23.136 2°47.634 9.8 256 8 99690 46
2012-04-11 07:51:22 51°23.153 2°47.625 8.1 254 8 99690 46
2012-04-11 07:51:27 51°23.17 2°47.617 6.7 256 8 99690 46
2012-04-11 07:51:31 51°23.184 2°47.61 7.8 255 8 99700 45
2012-04-11 07:51:37 51°23.204 2°47.6 9.3 259 8 99700 45
2012-04-11 07:51:42 51°23.221 2°47.591 9.1 258 8 99690 45
2012-04-11 07:51:47 51°23.238 2°47.581 10.7 259 8 99690 45
2012-04-11 07:51:52 51°23.254 2°47.572 12 260 8 99690 46
2012-04-11 07:51:57 51°23.271 2°47.561 10.1 256 8 99690 46
2012-04-11 07:52:02 51°23.288 2°47.551 10.4 262 8 99690 46
2012-04-11 07:52:07 51°23.305 2°47.54 10.6 256 8 99690 46
2012-04-11 07:52:12 51°23.322 2°47.53 9.4 255 8 99690 46
2012-04-11 07:52:17 51°23.338 2°47.519 9.8 256 8 99690 46
2012-04-11 07:52:22 51°23.355 2°47.508 12.9 258 8 99680 47
2012-04-11 07:52:27 51°23.371 2°47.497 8.7 257 8 99680 47
2012-04-11 07:52:32 51°23.388 2°47.487 10.6 262 8 99690 46
2012-04-11 07:52:37 51°23.405 2°47.477 11.4 260 8 99690 46
2012-04-11 07:52:42 51°23.421 2°47.466 10.8 256 8 99690 46
2012-04-11 07:52:47 51°23.438 2°47.456 11 261 8 99690 46
2012-04-11 07:52:52 51°23.455 2°47.446 10.8 259 8 99690 46
2012-04-11 07:52:57 51°23.471 2°47.436 10.1 260 8 99690 46
2012-04-11 07:53:02 51°23.488 2°47.426 9.5 262 8 99690 45
2012-04-11 07:53:07 51°23.504 2°47.417 10.9 261 8 99690 45